When you browse on this site, cookies collect data to enhance your experience and personalize the content and advertising you see.
Visit our Privacy Policy to learn more. By continuing to use the site, you agree to this use of cookies and data.

Stündliche Wetter Bolshie Logi

Heute, 27 September, Sonntag

Zeit Temperatur Niederschläge Wind Luftdruck Luftfeuchtigkeit
00:00 +16°C° 0 mm 5 m/S 741 mmHg 58%
01:00 +16°C° 0 mm 5 m/S 741 mmHg 56%
02:00 +16°C° 0 mm 5 m/S 742 mmHg 52%
03:00 +15°C° 0 mm 5 m/S 742 mmHg 51%
04:00 +15°C° 0 mm 5 m/S 741 mmHg 49%
05:00 +15°C° 0 mm 5 m/S 741 mmHg 47%
06:00 +15°C° 0 mm 6 m/S 742 mmHg 49%
07:00 +15°C° 0 mm 6 m/S 742 mmHg 51%
08:00 +15°C° 0 mm 7 m/S 742 mmHg 52%
09:00 +16°C° 0 mm 7 m/S 742 mmHg 51%
10:00 +17°C° 0 mm 7 m/S 742 mmHg 50%
11:00 +20°C° 0 mm 7 m/S 742 mmHg 49%
12:00 +20°C° 0 mm 7 m/S 742 mmHg 51%
13:00 +20°C° 0 mm 7 m/S 742 mmHg 53%
14:00 +20°C° 0 mm 7 m/S 742 mmHg 56%
15:00 +18°C° 0 mm 7 m/S 742 mmHg 59%
16:00 +19°C° 0 mm 6 m/S 742 mmHg 62%
17:00 +17°C° 0 mm 6 m/S 742 mmHg 65%
18:00 +16°C° 1.4 mm 6 m/S 743 mmHg 71%
19:00 +15°C° 1.4 mm 6 m/S 743 mmHg 77%
20:00 +13°C° 1.4 mm 5 m/S 743 mmHg 83%
21:00 +13°C° 1 mm 5 m/S 743 mmHg 86%
22:00 +13°C° 1 mm 5 m/S 743 mmHg 89%
23:00 +13°C° 1 mm 5 m/S 743 mmHg 91%

Morgen, 28 September, Montag

Zeit Temperatur Niederschläge Wind Luftdruck Luftfeuchtigkeit
00:00 +13°C° 0.3 mm 4 m/S 743 mmHg 92%
01:00 +13°C° 0.3 mm 3 m/S 744 mmHg 93%
02:00 +14°C° 0.3 mm 2 m/S 744 mmHg 95%
03:00 +14°C° 0.9 mm 2 m/S 744 mmHg 94%
04:00 +13°C° 0.9 mm 3 m/S 744 mmHg 94%
05:00 +13°C° 0.9 mm 3 m/S 744 mmHg 94%
06:00 +12°C° 0.9 mm 4 m/S 744 mmHg 93%
07:00 +12°C° 0.9 mm 4 m/S 745 mmHg 91%
08:00 +10°C° 0.9 mm 5 m/S 745 mmHg 90%
09:00 +12°C° 0.4 mm 5 m/S 746 mmHg 87%
10:00 +12°C° 0.4 mm 5 m/S 746 mmHg 84%
11:00 +12°C° 0.4 mm 4 m/S 747 mmHg 81%
12:00 +12°C° 0.4 mm 4 m/S 747 mmHg 79%
13:00 +13°C° 0.4 mm 4 m/S 747 mmHg 77%
14:00 +13°C° 0.4 mm 4 m/S 748 mmHg 75%
15:00 +13°C° 0.1 mm 3 m/S 748 mmHg 75%
16:00 +14°C° 0.1 mm 2 m/S 748 mmHg 75%
17:00 +14°C° 0.1 mm 2 m/S 748 mmHg 75%
18:00 +14°C° 0 mm 2 m/S 748 mmHg 77%
19:00 +13°C° 0 mm 2 m/S 749 mmHg 79%
20:00 +12°C° 0 mm 2 m/S 749 mmHg 81%
21:00 +10°C° 0 mm 2 m/S 749 mmHg 83%
22:00 +10°C° 0 mm 2 m/S 749 mmHg 84%
23:00 +9°C° 0 mm 2 m/S 749 mmHg 86%

übermorgen, 29 September, Dienstag

Zeit Temperatur Niederschläge Wind Luftdruck Luftfeuchtigkeit
00:00 +9°C° 0 mm 2 m/S 749 mmHg 87%
01:00 +9°C° 0 mm 2 m/S 749 mmHg 87%
02:00 +9°C° 0 mm 2 m/S 749 mmHg 88%
03:00 +9°C° 0 mm 2 m/S 749 mmHg 88%
04:00 +9°C° 0 mm 2 m/S 749 mmHg 87%
05:00 +9°C° 0 mm 2 m/S 749 mmHg 87%
06:00 +9°C° 0 mm 2 m/S 749 mmHg 84%
07:00 +10°C° 0 mm 2 m/S 749 mmHg 81%
08:00 +11°C° 0 mm 3 m/S 749 mmHg 77%
09:00 +14°C° 0 mm 2 m/S 749 mmHg 72%
10:00 +15°C° 0 mm 2 m/S 748 mmHg 67%
11:00 +17°C° 0 mm 2 m/S 748 mmHg 62%
12:00 +18°C° 0 mm 3 m/S 748 mmHg 60%
13:00 +18°C° 0 mm 3 m/S 748 mmHg 58%
14:00 +19°C° 0 mm 3 m/S 747 mmHg 56%
15:00 +18°C° 0 mm 3 m/S 747 mmHg 62%
16:00 +17°C° 0 mm 3 m/S 747 mmHg 69%
17:00 +16°C° 0 mm 3 m/S 746 mmHg 76%
18:00 +14°C° 0 mm 3 m/S 746 mmHg 80%
19:00 +13°C° 0 mm 3 m/S 746 mmHg 85%
20:00 +12°C° 0 mm 3 m/S 746 mmHg 89%
21:00 +12°C° 0 mm 3 m/S 746 mmHg 86%
22:00 +13°C° 0 mm 3 m/S 746 mmHg 83%
23:00 +13°C° 0 mm 3 m/S 746 mmHg 80%

30 September, Mittwoch

Zeit Temperatur Niederschläge Wind Luftdruck Luftfeuchtigkeit
00:00 +12°C° 0 mm 3 m/S 745 mmHg 81%
01:00 +12°C° 0 mm 3 m/S 745 mmHg 81%
02:00 +11°C° 0 mm 3 m/S 745 mmHg 81%
03:00 +11°C° 0 mm 3 m/S 745 mmHg 81%
04:00 +10°C° 0 mm 3 m/S 745 mmHg 81%
05:00 +10°C° 0 mm 4 m/S 745 mmHg 81%
06:00 +10°C° 0 mm 4 m/S 745 mmHg 78%
07:00 +11°C° 0 mm 4 m/S 744 mmHg 74%
08:00 +11°C° 0 mm 4 m/S 744 mmHg 70%
09:00 +12°C° 0 mm 4 m/S 744 mmHg 67%
10:00 +14°C° 0 mm 5 m/S 745 mmHg 63%
11:00 +15°C° 0 mm 5 m/S 745 mmHg 60%
12:00 +15°C° 0 mm 5 m/S 744 mmHg 60%
13:00 +14°C° 0 mm 5 m/S 744 mmHg 59%
14:00 +14°C° 0 mm 5 m/S 744 mmHg 59%
15:00 +14°C° 0 mm 4 m/S 744 mmHg 61%
16:00 +14°C° 0 mm 4 m/S 744 mmHg 63%
17:00 +14°C° 0 mm 4 m/S 744 mmHg 66%
18:00 +13°C° 0 mm 4 m/S 744 mmHg 66%
19:00 +12°C° 0 mm 4 m/S 744 mmHg 66%
20:00 +11°C° 0 mm 3 m/S 745 mmHg 67%
21:00 +11°C° 0 mm 4 m/S 744 mmHg 65%
22:00 +11°C° 0 mm 4 m/S 744 mmHg 63%
23:00 +11°C° 0 mm 4 m/S 744 mmHg 61%

1 Oktober, Donnerstag

Zeit Temperatur Niederschläge Wind Luftdruck Luftfeuchtigkeit
00:00 +10°C° 0 mm 4 m/S 744 mmHg 61%
01:00 +10°C° 0 mm 4 m/S 744 mmHg 61%
02:00 +8°C° 0 mm 4 m/S 744 mmHg 60%
03:00 +8°C° 0 mm 4 m/S 744 mmHg 60%
04:00 +8°C° 0 mm 4 m/S 744 mmHg 60%
05:00 +8°C° 0 mm 4 m/S 744 mmHg 59%
06:00 +8°C° 0 mm 4 m/S 744 mmHg 58%
07:00 +10°C° 0 mm 4 m/S 744 mmHg 57%
08:00 +10°C° 0 mm 5 m/S 744 mmHg 56%
09:00 +12°C° 0 mm 5 m/S 744 mmHg 56%
10:00 +12°C° 0 mm 5 m/S 744 mmHg 56%
11:00 +13°C° 0 mm 5 m/S 744 mmHg 56%
12:00 +13°C° 0 mm 5 m/S 744 mmHg 59%
13:00 +13°C° 0 mm 5 m/S 744 mmHg 63%
14:00 +13°C° 0 mm 5 m/S 744 mmHg 66%
15:00 +12°C° 0 mm 5 m/S 744 mmHg 71%
16:00 +12°C° 0 mm 5 m/S 744 mmHg 76%
17:00 +11°C° 0 mm 4 m/S 744 mmHg 81%
18:00 +11°C° 0 mm 4 m/S 744 mmHg 80%
19:00 +11°C° 0 mm 4 m/S 744 mmHg 78%
20:00 +11°C° 0 mm 4 m/S 744 mmHg 76%
21:00 +11°C° 0 mm 4 m/S 744 mmHg 78%
22:00 +10°C° 0 mm 4 m/S 744 mmHg 80%
23:00 +10°C° 0 mm 3 m/S 744 mmHg 82%

2 Oktober, Freitag

Zeit Temperatur Niederschläge Wind Luftdruck Luftfeuchtigkeit
00:00 +9°C° 0 mm 3 m/S 744 mmHg 83%
01:00 +9°C° 0 mm 3 m/S 744 mmHg 84%
02:00 +9°C° 0 mm 3 m/S 744 mmHg 85%
03:00 +9°C° 0 mm 3 m/S 744 mmHg 85%
04:00 +8°C° 0 mm 3 m/S 745 mmHg 86%
05:00 +8°C° 0 mm 3 m/S 745 mmHg 86%
06:00 +9°C° 0 mm 3 m/S 745 mmHg 81%
07:00 +10°C° 0 mm 4 m/S 745 mmHg 75%
08:00 +11°C° 0 mm 4 m/S 745 mmHg 70%
09:00 +12°C° 0 mm 4 m/S 745 mmHg 65%
10:00 +14°C° 0 mm 4 m/S 745 mmHg 60%
11:00 +16°C° 0 mm 5 m/S 745 mmHg 55%
12:00 +16°C° 0 mm 5 m/S 745 mmHg 56%
13:00 +16°C° 0 mm 5 m/S 745 mmHg 58%
14:00 +16°C° 0 mm 5 m/S 745 mmHg 60%
15:00 +15°C° 0 mm 5 m/S 745 mmHg 62%
16:00 +14°C° 0 mm 4 m/S 746 mmHg 65%
17:00 +13°C° 0 mm 3 m/S 746 mmHg 67%
18:00 +13°C° 0 mm 3 m/S 746 mmHg 70%
19:00 +12°C° 0 mm 4 m/S 746 mmHg 74%
20:00 +11°C° 0 mm 4 m/S 746 mmHg 77%
21:00 +11°C° 0 mm 3 m/S 747 mmHg 80%
22:00 +10°C° 0 mm 3 m/S 747 mmHg 83%
23:00 +10°C° 0 mm 3 m/S 747 mmHg 87%
Mehr zeigen